Weather History for Mobile, AL

Change the Weather History Date:

Friday, October 19, 2012

  Actual Average Record
Temperature  
Mean Temperature 63 °F 67 °F  
Max Temperature 78 °F 78 °F 88 °F (1949)
Min Temperature 47 °F 57 °F 38 °F (1989)
Degree Days  
Heating Degree Days 2 2  
Month to date heating degree days 5 18  
Since 1 July heating degree days 5 20  
Cooling Degree Days 0 4  
Month to date cooling degree days 99 117  
Year to date cooling degree days 2653 2421  
Growing Degree Days 12 (Base 50)    
Moisture  
Dew Point 40 °F    
Average Humidity 55    
Maximum Humidity 93    
Minimum Humidity 16    
Precipitation  
Precipitation 0.00 in 0.11 in 2.04 in (1887)
Month to date precipitation 0.19 2.22  
Year to date precipitation 64.19 54.49  
Sea Level Pressure  
Sea Level Pressure 29.90 in    
Wind  
Wind Speed 5 mph (WNW)    
Max Wind Speed 15 mph    
Max Gust Speed 22 mph    
Visibility 10 miles    
Events      
T = Trace of Precipitation, MM = Missing Value Source: NWS Daily Summary

Daily Weather History Graph

Daily Weather History Graph

Search for Another Location

Airport:

Trip Planner

Search our weather history database for the weather conditions in past years. The results will help you decide how hot, cold, wet, or windy it might be!

Date:

Astronomy

Oct. 19, 2012 Rise Set
Actual Time 6:58 AM CDT 6:16 PM CDT
Civil Twilight 6:34 AM CDT 6:41 PM CDT
Nautical Twilight 6:05 AM CDT 7:09 PM CDT
Astronomical Twilight 5:37 AM CDT 7:37 PM CDT
Moon 11:27 AM CDT (10/19) 10:07 PM CDT (10/19)
Length of Visible Light 12h 07m
Length of Day
11h 18m
Waxing Crescent, 24% of the Moon is Illuminated
Oct 19
Waxing Crescent
Oct 21
First Quarter
Oct 29
Full
Nov 6
Last Quarter
Nov 13
New

Hourly Weather History & Observations

Time (CDT) Temp. Dew Point Humidity Pressure Visibility Wind Dir Wind Speed Gust Speed Precip Events Conditions
12:56 AM 59.0 °F 42.1 °F 53% 29.90 in 10.0 mi North 4.6 mph - N/A   Clear
1:56 AM 51.1 °F 44.1 °F 77% 29.89 in 10.0 mi Calm Calm - N/A   Clear
2:56 AM 48.9 °F 46.0 °F 90% 29.89 in 10.0 mi NW 3.5 mph - N/A   Clear
3:56 AM 52.0 °F 44.1 °F 74% 29.88 in 10.0 mi Calm Calm - N/A   Clear
4:56 AM 48.9 °F 44.1 °F 83% 29.89 in 10.0 mi Calm Calm - N/A   Clear
5:56 AM 48.9 °F 43.0 °F 80% 29.90 in 10.0 mi NW 3.5 mph - N/A   Clear
6:56 AM 50.0 °F 42.1 °F 74% 29.91 in 10.0 mi WNW 3.5 mph - N/A   Clear
7:56 AM 55.0 °F 44.1 °F 67% 29.92 in 10.0 mi NW 3.5 mph - N/A   Clear
8:56 AM 64.0 °F 48.0 °F 56% 29.94 in 10.0 mi NW 4.6 mph - N/A   Clear
9:56 AM 70.0 °F 42.1 °F 36% 29.94 in 10.0 mi WNW 5.8 mph - N/A   Clear
10:56 AM 73.9 °F 39.0 °F 28% 29.95 in 10.0 mi Variable 5.8 mph - N/A   Clear
11:46 AM 75.2 °F 35.6 °F 24% 29.94 in 10.0 mi West 11.5 mph 17.3 mph N/A   Partly Cloudy
11:56 AM 75.2 °F 35.6 °F 24% 29.93 in 10.0 mi WNW 10.4 mph - N/A   Partly Cloudy
12:56 PM 77.0 °F 35.6 °F 22% 29.91 in 10.0 mi WSW 11.5 mph 18.4 mph N/A   Partly Cloudy
1:56 PM 77.0 °F 30.9 °F 19% 29.88 in 10.0 mi West 12.7 mph 19.6 mph N/A   Clear
2:56 PM 77.0 °F 28.9 °F 17% 29.86 in 10.0 mi WNW 10.4 mph - N/A   Clear
3:56 PM 77.0 °F 32.0 °F 19% 29.85 in 10.0 mi West 8.1 mph - N/A   Clear
4:56 PM 75.0 °F 34.0 °F 22% 29.85 in 10.0 mi West 6.9 mph 16.1 mph N/A   Clear
5:56 PM 70.0 °F 37.0 °F 30% 29.85 in 10.0 mi WSW 3.5 mph - N/A   Clear
6:56 PM 66.0 °F 39.0 °F 37% 29.87 in 10.0 mi WSW 3.5 mph - N/A   Clear
7:56 PM 61.0 °F 41.0 °F 48% 29.89 in 10.0 mi Calm Calm - N/A   Clear
8:56 PM 55.0 °F 44.1 °F 67% 29.90 in 10.0 mi Calm Calm - N/A   Clear
9:56 PM 55.0 °F 44.1 °F 67% 29.91 in 10.0 mi WSW 3.5 mph - N/A   Clear
10:56 PM 54.0 °F 44.1 °F 69% 29.92 in 10.0 mi Calm Calm - N/A   Clear
11:56 PM 52.0 °F 43.0 °F 71% 29.92 in 10.0 mi West 4.6 mph - N/A   Clear